Tracking 19246 objects as of 21-Sep-2018
HD Live streaming from Space Station
objects crossing your sky now

FENGYUN 1C DEB

Track FENGYUN 1C DEB now!
10-day predictions


NORAD ID: 33664
Int'l Code: 1999-025DEZ
Perigee: 777.8 km
Apogee: 1,017.0 km
Inclination: 98.8 °
Period: 102.8 minutes
Semi major axis: 7268 km
RCS: 0.0059 m2 (small)
Launch date: May 10, 1999
Source: People's Republic of China (PRC)
Launch site: Taiyaun Space Center, China (TSC)

Note: This is SATELLITE DEBRIS
aabbcc
Your satellite tracking list
Your tracking list is empty




NASA's NSSDC Master Catalog

Two Line Element Set (TLE):
1 33664U 99025DEZ 18263.45370012 +.00000432 +00000-0 +28172-3 0  9991
2 33664 098.7772 144.1070 0164546 233.2556 125.3405 14.01015878537463
Source of the keplerian elements: AFSPC